Jadwal Kapal Pelni KM Labobar 2019

Jadwal Keberangkatan Kapal KM Labobar – Kapal pelni labobar adalah salah satu kapal penumpang yang sejak lama di oprasikan oleh PT. Pelni untuk rute pelayaran tujuan Tanjung Perak Surabaya, Balikpapan, Pantoloan Donggala, Amurang, Bitung, Ternate, Sorong, Manokwari, Nabire, Serui, Biak, Jayapura, bagi anda yang hendak melakukan perjalanan dengan tujuan rute kapal pelni km labobar di atas tadi anda bisa menumpang atau menggunakan kapal km labobar.

Untuk penyebrangan anda ke tempat tujuan anda, bagi anda yang sedang membutuhkan informasi mengenai jadwal terbaru kapal laut km labobar admin akan memberikan info terbaru mengenai jadwal kapal km labobar bulan ini, perlu anda ketahui untuk pemesanan tiket kapal pelni anda bisa melalui agen pelni yang tersebar di berbagai wilayah maupun kota seperti agen tiket pelni Surabaya, Makassar, Medan, Ambon, Jayapura, Jakarta dan masih banyak lainya.

Jadwal Kapal Labobar

Jadwal Kapal Pelni KM Labobar

Untuk pembelian tiket kapal pelni secara online anda bisa langsung menuju website resmi pelni.co.id, untuk pembelian tiket kapal pelni selanjutnya anda bisa melakukan melalui Indomart, Alfamart, Ata Tour, Fast Travel Dan MMBC, admin selalu mengupdate jadwal kapal pelni di setiap bulanya, bagi anda yang ingin mengetahui jadwal kapal pelni lebaran 2019 maupun harga tiket kapal pelni lebaran 2019, admin akan mengupdate jadwal kapal lebaran 2019 di info artikel selanjutnya.

Sebelum admin memberikan informasi jadwal kapal laut KM labobar ada baiknya anda sedikit mengeathui informasi mengenai beberapa fasilitas yang sudah di perbaru oleh pelni guna untuk kenyamanan para penumpang kapal pelni yang hendak melakukan perjalan berlayarnya menuju pelabuhan yang mereka tuju, beberapa fasilitas pelni yang sudah di perbarui yaitu saat ini sudah ada tempat tidur yang layak bagi penumpang kapal pelni, nah untuk mengetahui detail info jadwal terbaru kapal labobar anda bisa melihat tabel di bawah ini mengenai jadwal kapal labobar bulan ini sebagai berikut.

Jadwal Kapal Pelni KM Labobar Terbaru

BERANGKAT DARI PELABUHANTIBA DI PELABUHANWAKTU KEBERANGKATAN KAPAL PELNI LABOBARWAKTU TIBA KAPAL PELNI LABOBAR
SORONGTERNATE22-12-2018 | 15:0023-12-2018 | 08:00
TERNATEBITUNG23-12-2018 | 10:0023-12-2018 | 18:00
BITUNGTERNATE24-12-2018 | 08:0024-12-2018 | 15:00
TERNATESORONG24-12-2018 | 17:0025-12-2018 | 10:00
SORONGMANOKWARI25-12-2018 | 12:0026-12-2018 | 00:01
MANOKWARINABIRE26-12-2018 | 02:0026-12-2018 | 12:00
NABIRESERUI26-12-2018 | 14:0026-12-2018 | 20:00
SERUIJAYAPURA26-12-2018 | 22:0027-12-2018 | 15:00
JAYAPURASERUI27-12-2018 | 20:0028-12-2018 | 13:00
SERUINABIRE28-12-2018 | 15:0028-12-2018 | 21:00
NABIREMANOKWARI28-12-2018 | 23:0029-12-2018 | 09:00
MANOKWARISORONG29-12-2018 | 11:0029-12-2018 | 22:00
SORONGTERNATE30-12-2018 | 01:0030-12-2018 | 18:00
TERNATEBITUNG30-12-2018 | 19:0031-12-2018 | 03:00
BITUNGAMURANG31-12-2018 | 06:0031-12-2018 | 10:00
AMURANGPANTOLOAN [DONGGALA]31-12-2018 | 11:0001-01-2019 | 09:00
PANTOLOAN [DONGGALA]BALIKPAPAN01-01-2019 | 11:0001-01-2019 | 22:00
BALIKPAPANTANJUNG PERAK [SURABAYA]01-01-2019 | 23:5903-01-2019 | 03:00
TANJUNG PERAK [SURABAYA]BALIKPAPAN03-01-2019 | 13:0004-01-2019 | 17:00
BALIKPAPANPANTOLOAN [DONGGALA]04-01-2019 | 19:0005-01-2019 | 06:00
PANTOLOAN [DONGGALA]AMURANG05-01-2019 | 08:0006-01-2019 | 06:00
AMURANGBITUNG06-01-2019 | 07:0006-01-2019 | 13:00
BITUNGTERNATE06-01-2019 | 17:0007-01-2019 | 02:00
TERNATESORONG07-01-2019 | 04:0007-01-2019 | 21:00
SORONGMANOKWARI07-01-2019 | 23:5908-01-2019 | 11:00
MANOKWARINABIRE08-01-2019 | 13:0008-01-2019 | 23:00
NABIRESERUI09-01-2019 | 01:0009-01-2019 | 07:00
SERUIJAYAPURA09-01-2019 | 09:0010-01-2019 | 02:00
JAYAPURASERUI10-01-2019 | 07:0011-01-2019 | 00:01
SERUINABIRE11-01-2019 | 02:0011-01-2019 | 08:00
NABIREMANOKWARI11-01-2019 | 10:0011-01-2019 | 20:00
MANOKWARISORONG11-01-2019 | 22:0012-01-2019 | 09:00
SORONGTERNATE12-01-2019 | 11:0013-01-2019 | 04:00
TERNATEBITUNG13-01-2019 | 06:0013-01-2019 | 14:00
BITUNGAMURANG13-01-2019 | 17:0013-01-2019 | 23:00
AMURANGPANTOLOAN [DONGGALA]13-01-2019 | 23:5914-01-2019 | 22:00
PANTOLOAN [DONGGALA]BALIKPAPAN14-01-2019 | 23:5915-01-2019 | 11:00
BALIKPAPANTANJUNG PERAK [SURABAYA]15-01-2019 | 13:0016-01-2019 | 16:00
TANJUNG PERAK [SURABAYA]BALIKPAPAN17-01-2019 | 02:0018-01-2019 | 06:00
BALIKPAPANPANTOLOAN [DONGGALA]18-01-2019 | 08:0018-01-2019 | 19:00
PANTOLOAN [DONGGALA]BITUNG18-01-2019 | 21:0020-01-2019 | 00:01
BITUNGTERNATE20-01-2019 | 04:0020-01-2019 | 13:00
TERNATESORONG20-01-2019 | 15:0021-01-2019 | 08:00
SORONGMANOKWARI21-01-2019 | 11:0021-01-2019 | 23:00
MANOKWARINABIRE22-01-2019 | 02:0022-01-2019 | 12:00
NABIRESERUI22-01-2019 | 14:0022-01-2019 | 20:00
SERUIJAYAPURA22-01-2019 | 22:0023-01-2019 | 15:00
JAYAPURASERUI23-01-2019 | 20:0024-01-2019 | 13:00
SERUINABIRE24-01-2019 | 15:0024-01-2019 | 21:00
NABIREMANOKWARI24-01-2019 | 23:0025-01-2019 | 09:00
MANOKWARISORONG25-01-2019 | 11:0025-01-2019 | 23:00
SORONGTERNATE26-01-2019 | 01:0026-01-2019 | 18:00
TERNATEBITUNG26-01-2019 | 20:0027-01-2019 | 04:00
BITUNGPANTOLOAN [DONGGALA]27-01-2019 | 07:0028-01-2019 | 10:00
PANTOLOAN [DONGGALA]BALIKPAPAN28-01-2019 | 12:0028-01-2019 | 23:00
BALIKPAPANTANJUNG PERAK [SURABAYA]29-01-2019 | 01:0030-01-2019 | 05:00
TANJUNG PERAK [SURABAYA]BALIKPAPAN30-01-2019 | 15:0031-01-2019 | 19:00
BALIKPAPANPANTOLOAN [DONGGALA]31-01-2019 | 21:0001-02-2019 | 08:00
PANTOLOAN [DONGGALA]BITUNG01-02-2019 | 10:0002-02-2019 | 13:00
BITUNGTERNATE02-02-2019 | 17:0003-02-2019 | 02:00
TERNATESORONG03-02-2019 | 04:0003-02-2019 | 21:00
SORONGMANOKWARI03-02-2019 | 23:5904-02-2019 | 12:00
MANOKWARINABIRE04-02-2019 | 15:0005-02-2019 | 01:00
NABIRESERUI05-02-2019 | 03:0005-02-2019 | 09:00
SERUIJAYAPURA05-02-2019 | 11:0006-02-2019 | 04:00
JAYAPURASERUI06-02-2019 | 09:0007-02-2019 | 02:00
SERUINABIRE07-02-2019 | 04:0007-02-2019 | 10:00
NABIREMANOKWARI07-02-2019 | 12:0007-02-2019 | 22:00
MANOKWARISORONG07-02-2019 | 23:5908-02-2019 | 12:00
SORONGTERNATE08-02-2019 | 14:0009-02-2019 | 07:00
TERNATEBITUNG09-02-2019 | 09:0009-02-2019 | 17:00
BITUNGPANTOLOAN [DONGGALA]09-02-2019 | 20:0010-02-2019 | 23:00
PANTOLOAN [DONGGALA]BALIKPAPAN11-02-2019 | 01:0011-02-2019 | 12:00
BALIKPAPANTANJUNG PERAK [SURABAYA]11-02-2019 | 14:0012-02-2019 | 18:00

Keterangan

  • Perlu anda ketahui bahwa jadwal keberangkatan kapal pelni labobar ini, sewaktu-waktu bisa mengalami perubahan tanpa adanya pemberitahuan terlebih dahulu yang disebabkan banyak faktor, seperti karena keterlambatan keberangkatan dari pelabuhan sebelumnya atau disebabkan oleh penyebab lainnya.
  • Kapal pelni labobar ini hanya menyediakan tiket kelas ekonomi saja, jadi anda jangan berharap untuk mencari tiket kelas 1 atau kelas 2.
  • Harga tiket kapal pelni ini dibedakan berdasarkan kelompok usia tertentu yang terbagi ke dalam 3 golongan yaitu bayi (0-23 bulan), anak (2-11 tahun) dan dewasa ( > 11 tahun).

Harga Tiket Kapal Laut Pelni KM Labobar Terbaru

  1. Harga Tiket KM Labobar Sorong – Ternate … Rp 24000 – Rp 28.000
  2. Harga Tiket KM Labobar Ternate – Bitung … Rp 166.000 – Rp 22.000
  3. Harga Tiket KM Labobar Ternate – Sorong … Rp 225.000 – Rp 28.000
  4. Harga Tiket KM Labobar Bitung – Pantoloan … Rp 288.500 – Rp 34.000
  5. Harga Tiket KM Labobar Bitung – Ternate … Rp 173.500 – Rp 22.000
  6. Harga Tiket KM Labobar Pantoloan – Balikpapan … Rp 123.000 – Rp 18.000
  7. Harga Tiket KM Labobar Pantoloan – Amurang … Rp 246.000 – Rp 30.000
  8. Harga Tiket KM Labobar Amurang – Bitung … Rp 62.500 – Rp 12.000

Baca Juga : Jadwal Kapal Lawit

Informasi Lebih Lanjut Tentang  Jadwal Kapal Pelni Dan Tiket Kapal PELNI 2019 Silahkan Melalui Call Center

  • PSTN Jabodetabek: 162
  • Handphone: 021 162
  • PSTN Luar Jabodetabek: 021 21 88 7000
  • Fax: +62 21 6385 4130
  • E-mail: [email protected]

Jadwal Kapal Labobar Januari 2019 | Jadwal KM Labobar Februari 2019 | Jadwal Kapal Motor Labobar Maret 2019 | Jadwal Kapal Pelni Labobar April 2019 | Jadwal Kapal Laut Labobar Mei 2019 | Jadwal Keberangkatan Kapal Labobar Juni 2019 | Jadwal Keberangkatan KM Labobar Juli 2019 | Jadwal Keberangkatan Kapal Motor Labobar Agustus 2019 | Jadwal Keberangkatan Kapal Pelni Labobar September 2019 | Jadwal Keberangkatan Kapal Laut Labobar Oktober 2019 | Jadwal Terbaru Kapal Labobar November Tahun 2019 | Jadwal Terbaru Kapal Pelni Labobar Desember Tahun 2019 | Jadwal Kalpal Labobar Lebaran 2019 bisa memperoleh informasi yang anda cari tentang “Jadwal Terbaru Kapal Pelni 2019.